Location: ??????
(31.2056°N, 45.3906°E)
Time: 18:41:50
(UTC+00:00)

Cosmos 2181 Rocket - Pass Details

Date: 09 April 2020
Orbit: 952 x 1014 km, 82.9° (Epoch: 27 May)

Event Time Altitude Azimuth Distance (km) Brightness Sun altitude
Exits shadow 17:43:19 33° 203° (SSW) 1,585 5.0 -28.9°
Maximum altitude 17:46:15 68° 276° (W) 1,044 4.2 -29.4°
Drops below altitude 10° 17:52:25 10° 360° (N) 2,709 6.7 -30.5°
Sets 17:54:56 0° 3° (N) 3,651 7.4 -31.0°
